When you browse on this site, cookies collect data to enhance your experience and personalize the content and advertising you see.
Visit our Privacy Policy to learn more. By continuing to use the site, you agree to this use of cookies and data.
EN

Hourly Weather Cairo

Today, 10 July, Friday

Time Temperature Precipitation Wind Pressure Humidity
00:00 +27°C° 0 mm 3 mps 752 mmHg 77%
01:00 +26°C° 0 mm 3 mps 752 mmHg 80%
02:00 +26°C° 0 mm 2 mps 752 mmHg 82%
03:00 +26°C° 0 mm 2 mps 752 mmHg 83%
04:00 +26°C° 0 mm 2 mps 752 mmHg 84%
05:00 +26°C° 0 mm 3 mps 752 mmHg 85%
06:00 +27°C° 0 mm 2 mps 752 mmHg 79%
07:00 +28°C° 0 mm 2 mps 752 mmHg 72%
08:00 +29°C° 0 mm 2 mps 752 mmHg 65%
09:00 +31°C° 0 mm 2 mps 752 mmHg 54%
10:00 +34°C° 0 mm 3 mps 752 mmHg 44%
11:00 +36°C° 0 mm 3 mps 752 mmHg 33%
12:00 +38°C° 0 mm 3 mps 752 mmHg 29%
13:00 +40°C° 0 mm 4 mps 751 mmHg 24%
14:00 +42°C° 0 mm 4 mps 751 mmHg 20%
15:00 +42°C° 0 mm 6 mps 751 mmHg 21%
16:00 +43°C° 0 mm 8 mps 751 mmHg 22%
17:00 +43°C° 0 mm 9 mps 751 mmHg 23%
18:00 +39°C° 0 mm 8 mps 751 mmHg 32%
19:00 +35°C° 0 mm 7 mps 752 mmHg 41%
20:00 +32°C° 0 mm 6 mps 752 mmHg 50%
21:00 +30°C° 0 mm 6 mps 752 mmHg 59%
22:00 +28°C° 0 mm 5 mps 753 mmHg 68%
23:00 +27°C° 0 mm 4 mps 753 mmHg 76%

Tomorrow, 11 July, Saturday

Time Temperature Precipitation Wind Pressure Humidity
00:00 +26°C° 0 mm 4 mps 753 mmHg 80%
01:00 +26°C° 0 mm 3 mps 753 mmHg 84%
02:00 +25°C° 0 mm 3 mps 753 mmHg 87%
03:00 +25°C° 0 mm 3 mps 753 mmHg 88%
04:00 +24°C° 0 mm 2 mps 753 mmHg 89%
05:00 +24°C° 0 mm 2 mps 753 mmHg 90%
06:00 +26°C° 0 mm 2 mps 753 mmHg 81%
07:00 +27°C° 0 mm 3 mps 753 mmHg 71%
08:00 +29°C° 0 mm 3 mps 753 mmHg 62%
09:00 +33°C° 0 mm 3 mps 753 mmHg 49%
10:00 +35°C° 0 mm 3 mps 753 mmHg 37%
11:00 +38°C° 0 mm 4 mps 753 mmHg 25%
12:00 +41°C° 0 mm 4 mps 752 mmHg 22%
13:00 +42°C° 0 mm 4 mps 752 mmHg 18%
14:00 +43°C° 0 mm 4 mps 751 mmHg 15%
15:00 +43°C° 0 mm 5 mps 751 mmHg 16%
16:00 +44°C° 0 mm 6 mps 751 mmHg 16%
17:00 +44°C° 0 mm 7 mps 751 mmHg 17%
18:00 +39°C° 0 mm 7 mps 751 mmHg 27%
19:00 +35°C° 0 mm 6 mps 751 mmHg 36%
20:00 +32°C° 0 mm 6 mps 752 mmHg 46%
21:00 +30°C° 0 mm 5 mps 752 mmHg 54%
22:00 +28°C° 0 mm 5 mps 752 mmHg 63%
23:00 +27°C° 0 mm 4 mps 752 mmHg 72%

Day after tomorrow, 12 July, Sunday

Time Temperature Precipitation Wind Pressure Humidity
00:00 +26°C° 0 mm 3 mps 752 mmHg 76%
01:00 +25°C° 0 mm 3 mps 752 mmHg 81%
02:00 +24°C° 0 mm 3 mps 751 mmHg 86%
03:00 +24°C° 0 mm 3 mps 751 mmHg 88%
04:00 +24°C° 0 mm 3 mps 751 mmHg 89%
05:00 +22°C° 0 mm 3 mps 751 mmHg 91%
06:00 +25°C° 0 mm 3 mps 751 mmHg 84%
07:00 +26°C° 0 mm 4 mps 752 mmHg 76%
08:00 +27°C° 0 mm 4 mps 752 mmHg 69%
09:00 +30°C° 0 mm 4 mps 752 mmHg 56%
10:00 +34°C° 0 mm 4 mps 752 mmHg 43%
11:00 +36°C° 0 mm 4 mps 751 mmHg 30%
12:00 +38°C° 0 mm 3 mps 751 mmHg 26%
13:00 +40°C° 0 mm 3 mps 750 mmHg 21%
14:00 +43°C° 0 mm 3 mps 750 mmHg 16%
15:00 +42°C° 0 mm 5 mps 750 mmHg 18%
16:00 +43°C° 0 mm 7 mps 750 mmHg 20%
17:00 +43°C° 0 mm 9 mps 749 mmHg 21%
18:00 +39°C° 0 mm 8 mps 750 mmHg 30%
19:00 +34°C° 0 mm 7 mps 750 mmHg 40%
20:00 +30°C° 0 mm 7 mps 751 mmHg 49%
21:00 +29°C° 0 mm 6 mps 751 mmHg 58%
22:00 +27°C° 0 mm 5 mps 751 mmHg 68%
23:00 +26°C° 0 mm 4 mps 751 mmHg 77%

13 July, Monday

Time Temperature Precipitation Wind Pressure Humidity
00:00 +25°C° 0 mm 4 mps 750 mmHg 81%
01:00 +23°C° 0 mm 4 mps 750 mmHg 85%
02:00 +24°C° 0 mm 3 mps 750 mmHg 90%
03:00 +24°C° 0 mm 3 mps 750 mmHg 89%
04:00 +22°C° 0 mm 3 mps 750 mmHg 89%
05:00 +22°C° 0 mm 3 mps 750 mmHg 89%
06:00 +25°C° 0 mm 3 mps 750 mmHg 81%
07:00 +26°C° 0 mm 4 mps 750 mmHg 73%
08:00 +28°C° 0 mm 4 mps 750 mmHg 65%
09:00 +30°C° 0 mm 4 mps 749 mmHg 52%
10:00 +34°C° 0 mm 4 mps 749 mmHg 39%
11:00 +37°C° 0 mm 3 mps 749 mmHg 26%
12:00 +38°C° 0 mm 3 mps 749 mmHg 22%
13:00 +40°C° 0 mm 3 mps 748 mmHg 19%
14:00 +41°C° 0 mm 2 mps 748 mmHg 15%
15:00 +42°C° 0 mm 4 mps 747 mmHg 15%
16:00 +44°C° 0 mm 6 mps 747 mmHg 16%
17:00 +44°C° 0 mm 7 mps 747 mmHg 17%
18:00 +39°C° 0 mm 7 mps 747 mmHg 28%
19:00 +35°C° 0 mm 7 mps 748 mmHg 38%
20:00 +32°C° 0 mm 7 mps 748 mmHg 49%
21:00 +29°C° 0 mm 6 mps 749 mmHg 58%
22:00 +27°C° 0 mm 5 mps 749 mmHg 67%
23:00 +26°C° 0 mm 4 mps 749 mmHg 76%

14 July, Tuesday

Time Temperature Precipitation Wind Pressure Humidity
00:00 +25°C° 0 mm 4 mps 749 mmHg 79%
01:00 +25°C° 0 mm 3 mps 749 mmHg 81%
02:00 +24°C° 0 mm 2 mps 749 mmHg 84%
03:00 +24°C° 0 mm 2 mps 749 mmHg 85%
04:00 +23°C° 0 mm 2 mps 749 mmHg 86%
05:00 +23°C° 0 mm 2 mps 749 mmHg 87%
06:00 +24°C° 0 mm 2 mps 749 mmHg 79%
07:00 +26°C° 0 mm 2 mps 749 mmHg 71%
08:00 +28°C° 0 mm 2 mps 750 mmHg 63%
09:00 +30°C° 0 mm 2 mps 749 mmHg 52%
10:00 +34°C° 0 mm 2 mps 749 mmHg 41%
11:00 +36°C° 0 mm 2 mps 749 mmHg 29%
12:00 +38°C° 0 mm 2 mps 749 mmHg 24%
13:00 +40°C° 0 mm 2 mps 748 mmHg 19%
14:00 +41°C° 0 mm 2 mps 748 mmHg 14%
15:00 +42°C° 0 mm 2 mps 748 mmHg 13%
16:00 +42°C° 0 mm 2 mps 748 mmHg 11%
17:00 +43°C° 0 mm 3 mps 748 mmHg 10%
18:00 +41°C° 0 mm 4 mps 748 mmHg 22%
19:00 +38°C° 0 mm 6 mps 749 mmHg 33%
20:00 +34°C° 0 mm 7 mps 749 mmHg 45%
21:00 +32°C° 0 mm 6 mps 750 mmHg 53%
22:00 +29°C° 0 mm 5 mps 750 mmHg 60%
23:00 +28°C° 0 mm 5 mps 750 mmHg 68%

15 July, Wednesday

Time Temperature Precipitation Wind Pressure Humidity
00:00 +27°C° 0 mm 4 mps 750 mmHg 73%
01:00 +26°C° 0 mm 4 mps 750 mmHg 77%
02:00 +26°C° 0 mm 3 mps 750 mmHg 82%
03:00 +25°C° 0 mm 3 mps 750 mmHg 83%
04:00 +25°C° 0 mm 3 mps 751 mmHg 85%
05:00 +25°C° 0 mm 2 mps 751 mmHg 86%
06:00 +26°C° 0 mm 2 mps 751 mmHg 77%
07:00 +28°C° 0 mm 3 mps 751 mmHg 68%
08:00 +29°C° 0 mm 3 mps 752 mmHg 60%
09:00 +33°C° 0 mm 3 mps 752 mmHg 48%
10:00 +36°C° 0 mm 3 mps 751 mmHg 36%
11:00 +39°C° 0 mm 3 mps 751 mmHg 24%
12:00 +40°C° 0 mm 3 mps 751 mmHg 21%
13:00 +42°C° 0 mm 2 mps 751 mmHg 17%
14:00 +45°C° 0 mm 2 mps 750 mmHg 14%
15:00 +44°C° 0 mm 4 mps 750 mmHg 16%
16:00 +45°C° 0 mm 5 mps 750 mmHg 18%
17:00 +44°C° 0 mm 7 mps 750 mmHg 19%
18:00 +40°C° 0 mm 7 mps 751 mmHg 29%
19:00 +36°C° 0 mm 7 mps 751 mmHg 38%
20:00 +33°C° 0 mm 7 mps 752 mmHg 48%
21:00 +30°C° 0 mm 7 mps 752 mmHg 58%
22:00 +28°C° 0 mm 6 mps 752 mmHg 69%
23:00 +27°C° 0 mm 5 mps 753 mmHg 80%
Show more